PRIVATE WETTERSTATION BILLIGHEIM-ALLFELD                       ZURCK
Wetterdaten: Mittwoch, 13.07.2016
Datum Zeit Temp. A. Temp. A. min Temp. A. max Feuchte A. Luftdruck Regen Wind Richtung Richtung Sonnenschein ET Solar Taupunkt Windchill Windben Empfang
13.07.2016 00:00 15,5 C 15,5 C 15,6 C 90 % 1012,1 hPa 0,2 l/m 0,0 km/h (0 Bft) SW 225 0 min 0,000 mm 0 W/m 13,9 C 15,5 C 1,6 km/h (1 Bft) 100 %
13.07.2016 00:10 15,4 C 15,4 C 15,5 C 90 % 1012,1 hPa 0,0 l/m 1,6 km/h (1 Bft) W-SW 247 0 min 0,000 mm 0 W/m 13,8 C 15,4 C 8,0 km/h (2 Bft) 99 %
13.07.2016 00:20 15,3 C 15,3 C 15,4 C 90 % 1012,1 hPa 0,2 l/m 0,0 km/h (0 Bft) N 0 0 min 0,000 mm 0 W/m 13,7 C 15,3 C 0,0 km/h (0 Bft) 100 %
13.07.2016 00:30 15,3 C 15,2 C 15,3 C 90 % 1012,1 hPa 0,0 l/m 0,0 km/h (0 Bft) N 0 0 min 0,000 mm 0 W/m 13,7 C 15,3 C 0,0 km/h (0 Bft) 100 %
13.07.2016 00:40 15,1 C 15,1 C 15,3 C 90 % 1012,3 hPa 0,0 l/m 1,6 km/h (1 Bft) SW 225 0 min 0,000 mm 0 W/m 13,5 C 15,1 C 6,4 km/h (2 Bft) 100 %
13.07.2016 00:50 15,1 C 15,1 C 15,1 C 90 % 1012,2 hPa 0,0 l/m 1,6 km/h (1 Bft) SW 225 0 min 0,000 mm 0 W/m 13,5 C 15,1 C 8,0 km/h (2 Bft) 100 %
13.07.2016 01:00 14,8 C 14,8 C 15,1 C 90 % 1012,2 hPa 0,4 l/m 0,0 km/h (0 Bft) S-SW 202 0 min 0,000 mm 0 W/m 13,2 C 14,8 C 1,6 km/h (1 Bft) 100 %
13.07.2016 01:10 14,7 C 14,7 C 14,8 C 90 % 1012,1 hPa 0,0 l/m 0,0 km/h (0 Bft) SW 225 0 min 0,000 mm 0 W/m 13,1 C 14,7 C 4,8 km/h (1 Bft) 100 %
13.07.2016 01:20 14,6 C 14,6 C 14,7 C 90 % 1011,7 hPa 0,2 l/m 0,0 km/h (0 Bft) SW 225 0 min 0,000 mm 0 W/m 13,0 C 14,6 C 1,6 km/h (1 Bft) 100 %
13.07.2016 01:30 14,4 C 14,4 C 14,6 C 90 % 1011,5 hPa 0,0 l/m 0,0 km/h (0 Bft) N 0 0 min 0,000 mm 0 W/m 12,8 C 14,4 C 0,0 km/h (0 Bft) 100 %
13.07.2016 01:40 14,4 C 14,4 C 14,4 C 90 % 1011,4 hPa 0,0 l/m 0,0 km/h (0 Bft) SW 225 0 min 0,000 mm 0 W/m 12,8 C 14,4 C 1,6 km/h (1 Bft) 100 %
13.07.2016 01:50 14,5 C 14,4 C 14,5 C 90 % 1011,7 hPa 0,0 l/m 0,0 km/h (0 Bft) N 0 0 min 0,000 mm 0 W/m 12,9 C 14,5 C 0,0 km/h (0 Bft) 100 %
13.07.2016 02:00 14,5 C 14,5 C 14,5 C 90 % 1011,6 hPa 0,0 l/m 0,0 km/h (0 Bft) N 0 0 min 0,000 mm 0 W/m 12,9 C 14,5 C 0,0 km/h (0 Bft) 100 %
13.07.2016 02:10 14,4 C 14,4 C 14,5 C 90 % 1011,6 hPa 0,0 l/m 0,0 km/h (0 Bft) N 0 0 min 0,000 mm 0 W/m 12,8 C 14,4 C 0,0 km/h (0 Bft) 100 %
13.07.2016 02:20 14,3 C 14,3 C 14,4 C 90 % 1011,6 hPa 0,0 l/m 0,0 km/h (0 Bft) SW 225 0 min 0,000 mm 0 W/m 12,7 C 14,3 C 4,8 km/h (1 Bft) 100 %
13.07.2016 02:30 14,3 C 14,2 C 14,3 C 91 % 1011,7 hPa 0,0 l/m 1,6 km/h (1 Bft) S-SW 202 0 min 0,000 mm 0 W/m 12,8 C 14,3 C 4,8 km/h (1 Bft) 100 %
13.07.2016 02:40 14,2 C 14,2 C 14,2 C 91 % 1011,7 hPa 0,0 l/m 1,6 km/h (1 Bft) S 180 0 min 0,000 mm 0 W/m 12,8 C 14,2 C 6,4 km/h (2 Bft) 100 %
13.07.2016 02:50 14,2 C 14,2 C 14,2 C 91 % 1011,7 hPa 0,0 l/m 0,0 km/h (0 Bft) S 180 0 min 0,000 mm 0 W/m 12,8 C 14,2 C 4,8 km/h (1 Bft) 100 %
13.07.2016 03:00 14,1 C 14,1 C 14,2 C 91 % 1011,7 hPa 0,0 l/m 0,0 km/h (0 Bft) S 180 0 min 0,000 mm 0 W/m 12,7 C 14,1 C 4,8 km/h (1 Bft) 100 %
13.07.2016 03:10 14,0 C 14,0 C 14,1 C 90 % 1011,6 hPa 0,0 l/m 1,6 km/h (1 Bft) S 180 0 min 0,000 mm 0 W/m 12,4 C 14,0 C 4,8 km/h (1 Bft) 100 %
13.07.2016 03:20 13,9 C 13,9 C 14,0 C 91 % 1011,6 hPa 0,0 l/m 0,0 km/h (0 Bft) S 180 0 min 0,000 mm 0 W/m 12,5 C 13,9 C 1,6 km/h (1 Bft) 100 %
13.07.2016 03:30 13,8 C 13,8 C 13,9 C 91 % 1011,6 hPa 0,0 l/m 0,0 km/h (0 Bft) N 0 0 min 0,000 mm 0 W/m 12,4 C 13,8 C 0,0 km/h (0 Bft) 100 %
13.07.2016 03:40 13,8 C 13,8 C 13,8 C 91 % 1011,6 hPa 0,0 l/m 0,0 km/h (0 Bft) N 0 0 min 0,000 mm 0 W/m 12,4 C 13,8 C 0,0 km/h (0 Bft) 100 %
13.07.2016 03:50 13,6 C 13,6 C 13,8 C 91 % 1011,4 hPa 0,0 l/m 0,0 km/h (0 Bft) S 180 0 min 0,000 mm 0 W/m 12,2 C 13,6 C 1,6 km/h (1 Bft) 100 %
13.07.2016 04:00 13,6 C 13,6 C 13,6 C 91 % 1011,5 hPa 0,0 l/m 0,0 km/h (0 Bft) N 0 0 min 0,000 mm 0 W/m 12,2 C 13,6 C 0,0 km/h (0 Bft) 100 %
13.07.2016 04:10 13,6 C 13,6 C 13,6 C 91 % 1011,4 hPa 0,0 l/m 0,0 km/h (0 Bft) S 180 0 min 0,000 mm 0 W/m 12,2 C 13,6 C 1,6 km/h (1 Bft) 100 %
13.07.2016 04:20 13,6 C 13,6 C 13,6 C 91 % 1011,5 hPa 0,0 l/m 0,0 km/h (0 Bft) N 0 0 min 0,000 mm 0 W/m 12,2 C 13,6 C 0,0 km/h (0 Bft) 100 %
13.07.2016 04:30 13,7 C 13,6 C 13,7 C 90 % 1011,6 hPa 0,0 l/m 0,0 km/h (0 Bft) S 180 0 min 0,000 mm 0 W/m 12,1 C 13,7 C 1,6 km/h (1 Bft) 100 %
13.07.2016 04:40 13,7 C 13,7 C 13,7 C 91 % 1011,6 hPa 0,0 l/m 0,0 km/h (0 Bft) S 180 0 min 0,000 mm 0 W/m 12,3 C 13,7 C 3,2 km/h (1 Bft) 100 %
13.07.2016 04:50 13,7 C 13,7 C 13,7 C 91 % 1011,8 hPa 0,0 l/m 0,0 km/h (0 Bft) S 180 0 min 0,000 mm 0 W/m 12,3 C 13,7 C 4,8 km/h (1 Bft) 100 %
13.07.2016 05:00 13,6 C 13,6 C 13,7 C 91 % 1012,0 hPa 0,0 l/m 1,6 km/h (1 Bft) S-SW 202 0 min 0,000 mm 0 W/m 12,2 C 13,6 C 9,7 km/h (2 Bft) 100 %
13.07.2016 05:10 13,6 C 13,6 C 13,6 C 91 % 1012,0 hPa 0,0 l/m 1,6 km/h (1 Bft) W 270 0 min 0,000 mm 0 W/m 12,2 C 13,6 C 11,3 km/h (2 Bft) 100 %
13.07.2016 05:20 13,5 C 13,5 C 13,6 C 91 % 1012,0 hPa 0,0 l/m 4,8 km/h (1 Bft) W-SW 247 0 min 0,000 mm 0 W/m 12,1 C 13,5 C 14,5 km/h (3 Bft) 100 %
13.07.2016 05:30 13,4 C 13,4 C 13,6 C 91 % 1012,0 hPa 0,0 l/m 3,2 km/h (1 Bft) W-SW 247 0 min 0,000 mm 0 W/m 12,0 C 13,4 C 16,1 km/h (3 Bft) 100 %
13.07.2016 05:40 13,3 C 13,3 C 13,4 C 91 % 1012,0 hPa 0,0 l/m 3,2 km/h (1 Bft) W-SW 247 0 min 0,000 mm 0 W/m 11,9 C 13,3 C 16,1 km/h (3 Bft) 100 %
13.07.2016 05:50 13,3 C 13,3 C 13,3 C 91 % 1012,1 hPa 0,0 l/m 1,6 km/h (1 Bft) W-SW 247 0 min 0,000 mm 12 W/m 11,9 C 13,3 C 11,3 km/h (2 Bft) 100 %
13.07.2016 06:00 13,3 C 13,2 C 13,3 C 91 % 1012,2 hPa 0,0 l/m 0,0 km/h (0 Bft) W-SW 247 0 min 0,000 mm 19 W/m 11,9 C 13,3 C 1,6 km/h (1 Bft) 100 %
13.07.2016 06:10 13,3 C 13,2 C 13,3 C 91 % 1012,2 hPa 0,0 l/m 1,6 km/h (1 Bft) SW 225 0 min 0,000 mm 39 W/m 11,9 C 13,3 C 9,7 km/h (2 Bft) 100 %
13.07.2016 06:20 13,3 C 13,3 C 13,3 C 91 % 1012,3 hPa 0,0 l/m 1,6 km/h (1 Bft) S-SW 202 0 min 0,000 mm 42 W/m 11,9 C 13,3 C 8,0 km/h (2 Bft) 100 %
13.07.2016 06:30 13,4 C 13,3 C 13,4 C 91 % 1012,4 hPa 0,0 l/m 3,2 km/h (1 Bft) S-SW 202 0 min 0,000 mm 58 W/m 12,0 C 13,4 C 9,7 km/h (2 Bft) 100 %
13.07.2016 06:40 13,5 C 13,4 C 13,5 C 91 % 1012,4 hPa 0,0 l/m 1,6 km/h (1 Bft) W-SW 247 0 min 0,000 mm 63 W/m 12,1 C 13,5 C 9,7 km/h (2 Bft) 100 %
13.07.2016 06:50 13,5 C 13,5 C 13,6 C 91 % 1012,4 hPa 0,0 l/m 4,8 km/h (1 Bft) W-SW 247 0 min 0,000 mm 65 W/m 12,1 C 13,5 C 11,3 km/h (2 Bft) 99 %
13.07.2016 07:00 13,5 C 13,5 C 13,6 C 91 % 1012,4 hPa 0,0 l/m 1,6 km/h (1 Bft) W-SW 247 0 min 0,025 mm 67 W/m 12,1 C 13,5 C 6,4 km/h (2 Bft) 100 %
13.07.2016 07:10 13,4 C 13,4 C 13,5 C 91 % 1012,4 hPa 0,0 l/m 4,8 km/h (1 Bft) W 270 0 min 0,000 mm 39 W/m 12,0 C 13,4 C 9,7 km/h (2 Bft) 100 %
13.07.2016 07:20 13,4 C 13,4 C 13,4 C 91 % 1012,5 hPa 0,0 l/m 1,6 km/h (1 Bft) W-SW 247 0 min 0,000 mm 54 W/m 12,0 C 13,4 C 8,0 km/h (2 Bft) 100 %
13.07.2016 07:30 13,4 C 13,4 C 13,4 C 91 % 1012,6 hPa 0,0 l/m 1,6 km/h (1 Bft) W-SW 247 0 min 0,000 mm 116 W/m 12,0 C 13,4 C 9,7 km/h (2 Bft) 100 %
13.07.2016 07:40 13,7 C 13,4 C 13,7 C 91 % 1012,6 hPa 0,0 l/m 6,4 km/h (2 Bft) W-SW 247 10 min 0,000 mm 171 W/m 12,3 C 13,7 C 16,1 km/h (3 Bft) 100 %
13.07.2016 07:50 13,8 C 13,7 C 13,8 C 91 % 1012,5 hPa 0,0 l/m 6,4 km/h (2 Bft) W-NW 292 0 min 0,000 mm 107 W/m 12,4 C 13,8 C 16,1 km/h (3 Bft) 100 %
13.07.2016 08:00 13,9 C 13,8 C 13,9 C 91 % 1012,6 hPa 0,0 l/m 3,2 km/h (1 Bft) W-NW 292 0 min 0,051 mm 109 W/m 12,5 C 13,9 C 12,9 km/h (3 Bft) 100 %
13.07.2016 08:10 14,1 C 13,9 C 14,1 C 91 % 1012,5 hPa 0,0 l/m 0,0 km/h (0 Bft) W 270 10 min 0,000 mm 153 W/m 12,7 C 14,1 C 8,0 km/h (2 Bft) 100 %
13.07.2016 08:20 14,4 C 14,1 C 14,4 C 91 % 1012,5 hPa 0,0 l/m 3,2 km/h (1 Bft) NW 315 10 min 0,000 mm 218 W/m 12,9 C 14,4 C 9,7 km/h (2 Bft) 100 %
13.07.2016 08:30 14,8 C 14,4 C 14,8 C 91 % 1012,5 hPa 0,0 l/m 3,2 km/h (1 Bft) NW 315 10 min 0,000 mm 172 W/m 13,3 C 14,8 C 8,0 km/h (2 Bft) 100 %
13.07.2016 08:40 15,1 C 14,8 C 15,1 C 91 % 1012,5 hPa 0,0 l/m 1,6 km/h (1 Bft) NW 315 0 min 0,000 mm 134 W/m 13,6 C 15,1 C 8,0 km/h (2 Bft) 99 %
13.07.2016 08:50 15,1 C 15,1 C 15,1 C 91 % 1012,6 hPa 0,0 l/m 3,2 km/h (1 Bft) NW 315 10 min 0,000 mm 167 W/m 13,6 C 15,1 C 8,0 km/h (2 Bft) 100 %
13.07.2016 09:00 15,2 C 15,1 C 15,2 C 90 % 1012,7 hPa 0,0 l/m 0,0 km/h (0 Bft) W-NW 292 10 min 0,076 mm 251 W/m 13,6 C 15,2 C 6,4 km/h (2 Bft) 100 %
13.07.2016 09:10 15,5 C 15,2 C 15,5 C 90 % 1012,8 hPa 0,0 l/m 6,4 km/h (2 Bft) W-SW 247 10 min 0,000 mm 390 W/m 13,9 C 15,5 C 17,7 km/h (3 Bft) 100 %
13.07.2016 09:20 15,4 C 15,4 C 15,5 C 90 % 1012,9 hPa 0,0 l/m 6,4 km/h (2 Bft) W-NW 292 10 min 0,000 mm 267 W/m 13,8 C 15,4 C 16,1 km/h (3 Bft) 100 %
13.07.2016 09:30 15,4 C 15,4 C 15,4 C 88 % 1013,0 hPa 0,0 l/m 6,4 km/h (2 Bft) W 270 10 min 0,000 mm 239 W/m 13,4 C 15,4 C 16,1 km/h (3 Bft) 100 %
13.07.2016 09:40 15,2 C 15,2 C 15,4 C 87 % 1013,1 hPa 0,0 l/m 8,0 km/h (2 Bft) W 270 10 min 0,000 mm 246 W/m 13,0 C 14,3 C 16,1 km/h (3 Bft) 100 %
13.07.2016 09:50 15,4 C 15,2 C 15,4 C 88 % 1013,1 hPa 0,0 l/m 6,4 km/h (2 Bft) W 270 10 min 0,000 mm 457 W/m 13,4 C 15,4 C 19,3 km/h (3 Bft) 100 %
13.07.2016 10:00 15,7 C 15,4 C 15,7 C 87 % 1013,1 hPa 0,0 l/m 4,8 km/h (1 Bft) W-NW 292 10 min 0,152 mm 329 W/m 13,5 C 15,7 C 16,1 km/h (3 Bft) 100 %
13.07.2016 10:10 16,0 C 15,7 C 16,0 C 88 % 1013,1 hPa 0,0 l/m 6,4 km/h (2 Bft) W 270 10 min 0,000 mm 422 W/m 14,0 C 16,0 C 16,1 km/h (3 Bft) 100 %
13.07.2016 10:20 16,5 C 16,0 C 16,5 C 87 % 1013,1 hPa 0,0 l/m 4,8 km/h (1 Bft) W-SW 247 10 min 0,000 mm 399 W/m 14,3 C 16,5 C 14,5 km/h (3 Bft) 100 %
13.07.2016 10:30 17,1 C 16,5 C 17,1 C 84 % 1012,9 hPa 0,0 l/m 6,4 km/h (2 Bft) W-SW 247 10 min 0,000 mm 935 W/m 14,4 C 17,1 C 17,7 km/h (3 Bft) 91 %
13.07.2016 10:40 17,1 C 17,1 C 17,2 C 81 % 1012,8 hPa 0,0 l/m 4,8 km/h (1 Bft) W 270 10 min 0,000 mm 446 W/m 13,8 C 17,1 C 19,3 km/h (3 Bft) 100 %
13.07.2016 10:50 17,1 C 17,1 C 17,2 C 81 % 1012,8 hPa 0,0 l/m 9,7 km/h (2 Bft) W 270 10 min 0,000 mm 417 W/m 13,8 C 15,6 C 22,5 km/h (4 Bft) 100 %
13.07.2016 11:00 17,6 C 17,1 C 17,6 C 84 % 1012,8 hPa 0,0 l/m 9,7 km/h (2 Bft) W 270 10 min 0,279 mm 1079 W/m 14,9 C 16,1 C 19,3 km/h (3 Bft) 100 %
13.07.2016 11:10 18,2 C 17,6 C 18,2 C 79 % 1012,7 hPa 0,0 l/m 8,0 km/h (2 Bft) W 270 10 min 0,000 mm 1099 W/m 14,5 C 17,5 C 17,7 km/h (3 Bft) 100 %
13.07.2016 11:20 18,4 C 18,2 C 18,4 C 80 % 1012,7 hPa 0,0 l/m 6,4 km/h (2 Bft) W-NW 292 10 min 0,000 mm 666 W/m 14,9 C 18,4 C 14,5 km/h (3 Bft) 100 %
13.07.2016 11:30 17,6 C 17,6 C 18,4 C 80 % 1013,0 hPa 0,4 l/m 9,7 km/h (2 Bft) W-SW 247 0 min 0,000 mm 86 W/m 14,1 C 16,1 C 19,3 km/h (3 Bft) 100 %
13.07.2016 11:40 16,3 C 16,3 C 17,6 C 83 % 1012,8 hPa 0,2 l/m 3,2 km/h (1 Bft) W 270 0 min 0,000 mm 40 W/m 13,4 C 16,3 C 14,5 km/h (3 Bft) 100 %
13.07.2016 11:50 15,8 C 15,8 C 16,3 C 87 % 1012,8 hPa 0,0 l/m 0,0 km/h (0 Bft) N 0 0 min 0,000 mm 67 W/m 13,6 C 15,8 C 0,0 km/h (0 Bft) 100 %
13.07.2016 12:00 15,4 C 15,4 C 15,8 C 88 % 1012,8 hPa 0,0 l/m 0,0 km/h (0 Bft) W 270 0 min 0,152 mm 62 W/m 13,4 C 15,4 C 1,6 km/h (1 Bft) 100 %
13.07.2016 12:10 15,2 C 15,2 C 15,4 C 89 % 1012,8 hPa 0,2 l/m 0,0 km/h (0 Bft) N 0 0 min 0,000 mm 109 W/m 13,4 C 15,2 C 0,0 km/h (0 Bft) 100 %
13.07.2016 12:20 15,2 C 15,2 C 15,3 C 89 % 1012,9 hPa 0,0 l/m 0,0 km/h (0 Bft) W 270 0 min 0,000 mm 111 W/m 13,4 C 15,2 C 1,6 km/h (1 Bft) 100 %
13.07.2016 12:30 15,1 C 15,1 C 15,2 C 89 % 1012,9 hPa 0,0 l/m 1,6 km/h (1 Bft) S-SO 157 0 min 0,000 mm 91 W/m 13,3 C 15,1 C 8,0 km/h (2 Bft) 100 %
13.07.2016 12:40 15,1 C 15,1 C 15,1 C 90 % 1013,1 hPa 0,6 l/m 3,2 km/h (1 Bft) S-SO 157 0 min 0,000 mm 90 W/m 13,5 C 15,1 C 9,7 km/h (2 Bft) 100 %
13.07.2016 12:50 14,8 C 14,7 C 15,1 C 90 % 1013,1 hPa 0,8 l/m 3,2 km/h (1 Bft) S-SO 157 0 min 0,000 mm 132 W/m 13,2 C 14,8 C 8,0 km/h (2 Bft) 100 %
13.07.2016 13:00 14,9 C 14,8 C 14,9 C 90 % 1013,0 hPa 0,0 l/m 1,6 km/h (1 Bft) S 180 10 min 0,051 mm 260 W/m 13,3 C 14,9 C 9,7 km/h (2 Bft) 100 %
13.07.2016 13:10 15,3 C 14,9 C 15,3 C 90 % 1013,0 hPa 0,0 l/m 1,6 km/h (1 Bft) S-SO 157 10 min 0,000 mm 517 W/m 13,7 C 15,3 C 6,4 km/h (2 Bft) 100 %
13.07.2016 13:20 15,9 C 15,3 C 15,9 C 90 % 1012,8 hPa 0,0 l/m 1,6 km/h (1 Bft) SW 225 10 min 0,000 mm 485 W/m 14,3 C 15,9 C 9,7 km/h (2 Bft) 99 %
13.07.2016 13:30 16,6 C 16,0 C 16,8 C 90 % 1012,8 hPa 0,0 l/m 3,2 km/h (1 Bft) W-SW 247 10 min 0,000 mm 1041 W/m 15,0 C 16,6 C 16,1 km/h (3 Bft) 100 %
13.07.2016 13:40 16,9 C 16,6 C 16,9 C 88 % 1012,9 hPa 0,0 l/m 8,0 km/h (2 Bft) S-SW 202 10 min 0,000 mm 1035 W/m 14,9 C 16,1 C 19,3 km/h (3 Bft) 100 %
13.07.2016 13:50 16,8 C 16,8 C 16,9 C 86 % 1012,8 hPa 0,0 l/m 8,0 km/h (2 Bft) S-SW 202 10 min 0,000 mm 401 W/m 14,4 C 16,0 C 17,7 km/h (3 Bft) 100 %
13.07.2016 14:00 16,9 C 16,8 C 17,0 C 85 % 1012,8 hPa 0,0 l/m 6,4 km/h (2 Bft) S-SW 202 10 min 0,254 mm 522 W/m 14,4 C 16,9 C 17,7 km/h (3 Bft) 100 %
13.07.2016 14:10 17,2 C 16,9 C 17,2 C 86 % 1012,7 hPa 0,0 l/m 4,8 km/h (1 Bft) S-SW 202 10 min 0,000 mm 916 W/m 14,8 C 17,2 C 16,1 km/h (3 Bft) 100 %
13.07.2016 14:20 17,2 C 17,2 C 17,3 C 85 % 1012,8 hPa 0,0 l/m 6,4 km/h (2 Bft) S-SW 202 10 min 0,000 mm 299 W/m 14,7 C 17,2 C 17,7 km/h (3 Bft) 100 %
13.07.2016 14:30 17,7 C 17,2 C 17,8 C 83 % 1012,6 hPa 0,0 l/m 8,0 km/h (2 Bft) SW 225 10 min 0,000 mm 1183 W/m 14,8 C 16,9 C 24,1 km/h (4 Bft) 100 %
13.07.2016 14:40 17,9 C 17,7 C 17,9 C 83 % 1012,5 hPa 0,0 l/m 11,3 km/h (2 Bft) SW 225 10 min 0,000 mm 304 W/m 15,0 C 15,8 C 20,9 km/h (4 Bft) 99 %
13.07.2016 14:50 18,4 C 17,9 C 18,4 C 84 % 1012,4 hPa 0,0 l/m 9,7 km/h (2 Bft) W-SW 247 10 min 0,000 mm 1116 W/m 15,6 C 17,0 C 22,5 km/h (4 Bft) 100 %
13.07.2016 15:00 18,7 C 18,4 C 18,7 C 82 % 1012,3 hPa 0,0 l/m 12,9 km/h (3 Bft) S-SW 202 10 min 0,381 mm 1039 W/m 15,6 C 16,3 C 25,7 km/h (4 Bft) 100 %
13.07.2016 15:10 18,4 C 18,3 C 18,7 C 75 % 1012,4 hPa 0,0 l/m 12,9 km/h (3 Bft) W 270 10 min 0,000 mm 965 W/m 13,9 C 15,9 C 29,0 km/h (5 Bft) 100 %
13.07.2016 15:20 18,3 C 18,3 C 18,5 C 73 % 1012,4 hPa 0,0 l/m 11,3 km/h (2 Bft) W-NW 292 10 min 0,000 mm 884 W/m 13,4 C 16,3 C 29,0 km/h (5 Bft) 100 %
13.07.2016 15:30 18,0 C 18,0 C 18,3 C 75 % 1012,4 hPa 0,0 l/m 9,7 km/h (2 Bft) NW 315 10 min 0,000 mm 322 W/m 13,5 C 16,5 C 20,9 km/h (4 Bft) 100 %
13.07.2016 15:40 18,3 C 18,0 C 18,3 C 74 % 1012,3 hPa 0,0 l/m 6,4 km/h (2 Bft) W-NW 292 10 min 0,000 mm 439 W/m 13,6 C 18,3 C 19,3 km/h (3 Bft) 100 %
13.07.2016 15:50 18,8 C 18,3 C 18,8 C 74 % 1012,2 hPa 0,0 l/m 4,8 km/h (1 Bft) W-NW 292 10 min 0,000 mm 425 W/m 14,1 C 18,8 C 12,9 km/h (3 Bft) 100 %
13.07.2016 16:00 18,9 C 18,8 C 19,0 C 69 % 1012,2 hPa 0,0 l/m 9,7 km/h (2 Bft) W-SW 247 10 min 0,254 mm 281 W/m 13,1 C 17,5 C 22,5 km/h (4 Bft) 100 %
13.07.2016 16:10 19,1 C 18,9 C 19,1 C 70 % 1012,3 hPa 0,0 l/m 12,9 km/h (3 Bft) W-NW 292 10 min 0,000 mm 390 W/m 13,5 C 16,7 C 32,2 km/h (5 Bft) 99 %
13.07.2016 16:20 18,5 C 18,5 C 19,1 C 70 % 1012,5 hPa 0,0 l/m 16,1 km/h (3 Bft) W-NW 292 10 min 0,000 mm 211 W/m 12,9 C 15,1 C 32,2 km/h (5 Bft) 99 %
13.07.2016 16:30 17,9 C 17,9 C 18,5 C 71 % 1012,6 hPa 0,0 l/m 14,5 km/h (3 Bft) W-NW 292 10 min 0,000 mm 329 W/m 12,6 C 14,8 C 29,0 km/h (5 Bft) 97 %
13.07.2016 16:40 18,0 C 17,9 C 18,0 C 72 % 1012,5 hPa 0,0 l/m 9,7 km/h (2 Bft) W-NW 292 10 min 0,000 mm 399 W/m 12,9 C 16,5 C 20,9 km/h (4 Bft) 98 %
13.07.2016 16:50 18,5 C 18,0 C 18,5 C 71 % 1012,3 hPa 0,0 l/m 11,3 km/h (2 Bft) W-NW 292 10 min 0,000 mm 355 W/m 13,1 C 16,5 C 24,1 km/h (4 Bft) 97 %
13.07.2016 17:00 18,7 C 18,5 C 18,7 C 71 % 1012,3 hPa 0,0 l/m 9,7 km/h (2 Bft) W-NW 292 10 min 0,203 mm 295 W/m 13,3 C 17,3 C 22,5 km/h (4 Bft) 98 %
13.07.2016 17:10 19,1 C 18,7 C 19,1 C 71 % 1012,3 hPa 0,0 l/m 8,0 km/h (2 Bft) NW 315 10 min 0,000 mm 257 W/m 13,7 C 18,4 C 20,9 km/h (4 Bft) 98 %
13.07.2016 17:20 18,6 C 18,6 C 19,1 C 72 % 1012,4 hPa 0,0 l/m 11,3 km/h (2 Bft) NW 315 0 min 0,000 mm 144 W/m 13,4 C 16,6 C 20,9 km/h (4 Bft) 97 %
13.07.2016 17:30 18,3 C 18,3 C 18,6 C 72 % 1012,4 hPa 0,0 l/m 8,0 km/h (2 Bft) NW 315 10 min 0,000 mm 163 W/m 13,2 C 17,6 C 14,5 km/h (3 Bft) 97 %
13.07.2016 17:40 18,3 C 18,3 C 18,3 C 71 % 1012,2 hPa 0,0 l/m 3,2 km/h (1 Bft) NW 315 10 min 0,000 mm 153 W/m 12,9 C 18,3 C 11,3 km/h (2 Bft) 97 %
13.07.2016 17:50 18,2 C 18,2 C 18,3 C 70 % 1012,4 hPa 0,0 l/m 8,0 km/h (2 Bft) NW 315 10 min 0,000 mm 221 W/m 12,6 C 17,5 C 17,7 km/h (3 Bft) 98 %
13.07.2016 18:00 18,3 C 18,2 C 18,3 C 69 % 1012,5 hPa 0,0 l/m 8,0 km/h (2 Bft) NW 315 10 min 0,127 mm 265 W/m 12,5 C 17,6 C 16,1 km/h (3 Bft) 97 %
13.07.2016 18:10 18,3 C 18,3 C 18,4 C 67 % 1012,5 hPa 0,0 l/m 6,4 km/h (2 Bft) W-NW 292 10 min 0,000 mm 192 W/m 12,1 C 18,3 C 11,3 km/h (2 Bft) 98 %
13.07.2016 18:20 18,3 C 18,3 C 18,3 C 69 % 1012,6 hPa 0,0 l/m 1,6 km/h (1 Bft) NW 315 10 min 0,000 mm 199 W/m 12,5 C 18,3 C 9,7 km/h (2 Bft) 98 %
13.07.2016 18:30 18,4 C 18,3 C 18,4 C 71 % 1012,8 hPa 0,0 l/m 3,2 km/h (1 Bft) W 270 10 min 0,000 mm 199 W/m 13,0 C 18,4 C 14,5 km/h (3 Bft) 97 %
13.07.2016 18:40 18,3 C 18,3 C 18,4 C 66 % 1012,8 hPa 0,0 l/m 6,4 km/h (2 Bft) NW 315 10 min 0,000 mm 171 W/m 11,8 C 18,3 C 14,5 km/h (3 Bft) 98 %
13.07.2016 18:50 18,2 C 18,2 C 18,3 C 69 % 1012,8 hPa 0,0 l/m 1,6 km/h (1 Bft) NW 315 0 min 0,000 mm 149 W/m 12,4 C 18,2 C 11,3 km/h (2 Bft) 97 %
13.07.2016 19:00 18,0 C 18,0 C 18,2 C 69 % 1012,8 hPa 0,0 l/m 3,2 km/h (1 Bft) NW 315 0 min 0,127 mm 151 W/m 12,2 C 18,0 C 12,9 km/h (3 Bft) 98 %
13.07.2016 19:10 18,0 C 18,0 C 18,2 C 68 % 1012,7 hPa 0,0 l/m 1,7 km/h (1 Bft) NW 313 10 min 0,002 mm 153 W/m 12,0 C 18,0 C 8,0 km/h (2 Bft) 100 %
13.07.2016 19:20 18,1 C 18,0 C 18,1 C 68 % 1012,7 hPa 0,0 l/m 1,0 km/h (0 Bft) NW 310 0 min 0,000 mm 146 W/m 12,1 C 18,1 C 8,0 km/h (2 Bft) 100 %
13.07.2016 19:30 18,1 C 18,1 C 18,1 C 71 % 1012,7 hPa 0,0 l/m 0,2 km/h (0 Bft) NW 310 0 min 0,000 mm 146 W/m 12,8 C 18,1 C 4,8 km/h (1 Bft) 100 %
13.07.2016 19:40 17,9 C 17,9 C 18,1 C 69 % 1012,8 hPa 0,0 l/m 0,2 km/h (0 Bft) NW 310 0 min 0,000 mm 98 W/m 12,1 C 17,9 C 4,8 km/h (1 Bft) 100 %
13.07.2016 19:50 17,9 C 17,9 C 17,9 C 71 % 1012,9 hPa 0,0 l/m 0,0 km/h (0 Bft) W-NW 302 0 min 0,000 mm 47 W/m 12,6 C 17,9 C 1,6 km/h (1 Bft) 99 %
13.07.2016 20:00 17,7 C 17,7 C 17,9 C 76 % 1012,9 hPa 0,0 l/m 0,0 km/h (0 Bft) W-NW 302 0 min 0,076 mm 44 W/m 13,4 C 17,7 C 1,6 km/h (1 Bft) 100 %
13.07.2016 20:10 17,2 C 17,2 C 17,7 C 76 % 1013,1 hPa 0,0 l/m 0,1 km/h (0 Bft) W-SW 254 0 min 0,000 mm 25 W/m 12,9 C 17,2 C 4,8 km/h (1 Bft) 100 %
13.07.2016 20:20 16,6 C 16,6 C 17,2 C 75 % 1013,4 hPa 0,0 l/m 10,4 km/h (2 Bft) SW 235 0 min 0,000 mm 21 W/m 12,1 C 14,7 C 22,5 km/h (4 Bft) 100 %
13.07.2016 20:30 16,2 C 16,2 C 16,6 C 76 % 1013,4 hPa 0,0 l/m 8,9 km/h (2 Bft) S-SW 211 0 min 0,000 mm 0 W/m 12,0 C 14,9 C 20,9 km/h (4 Bft) 100 %
13.07.2016 20:40 15,9 C 15,9 C 16,2 C 76 % 1013,2 hPa 0,0 l/m 10,5 km/h (2 Bft) SW 229 0 min 0,000 mm 0 W/m 11,7 C 13,9 C 22,5 km/h (4 Bft) 100 %
13.07.2016 20:50 15,7 C 15,7 C 15,9 C 78 % 1013,7 hPa 0,0 l/m 7,4 km/h (2 Bft) W-SW 256 0 min 0,000 mm 0 W/m 11,9 C 15,2 C 20,9 km/h (4 Bft) 100 %
13.07.2016 21:00 15,6 C 15,6 C 15,7 C 79 % 1013,6 hPa 0,0 l/m 6,2 km/h (2 Bft) W 259 0 min 0,025 mm 0 W/m 12,0 C 15,6 C 16,1 km/h (3 Bft) 100 %
13.07.2016 21:10 15,5 C 15,5 C 15,6 C 79 % 1013,6 hPa 0,0 l/m 3,2 km/h (1 Bft) W-SW 247 0 min 0,000 mm 0 W/m 11,9 C 15,5 C 11,3 km/h (2 Bft) 97 %
13.07.2016 21:20 15,4 C 15,4 C 15,5 C 81 % 1013,8 hPa 0,0 l/m 3,2 km/h (1 Bft) W-SW 247 0 min 0,000 mm 0 W/m 12,2 C 15,4 C 14,5 km/h (3 Bft) 97 %
13.07.2016 21:30 15,2 C 15,2 C 15,4 C 83 % 1014,0 hPa 0,0 l/m 1,6 km/h (1 Bft) W-SW 247 0 min 0,000 mm 0 W/m 12,3 C 15,2 C 9,7 km/h (2 Bft) 98 %
13.07.2016 21:40 15,1 C 15,1 C 15,1 C 83 % 1014,4 hPa 0,0 l/m 3,2 km/h (1 Bft) W-SW 247 0 min 0,000 mm 0 W/m 12,2 C 15,1 C 16,1 km/h (3 Bft) 97 %
13.07.2016 21:50 14,8 C 14,8 C 15,1 C 84 % 1014,7 hPa 0,0 l/m 9,7 km/h (2 Bft) W 270 0 min 0,000 mm 0 W/m 12,1 C 13,0 C 19,3 km/h (3 Bft) 98 %
13.07.2016 22:00 14,6 C 14,6 C 14,8 C 86 % 1014,9 hPa 0,0 l/m 9,7 km/h (2 Bft) W 270 0 min 0,025 mm 0 W/m 12,3 C 12,8 C 19,3 km/h (3 Bft) 97 %
13.07.2016 22:10 14,2 C 14,2 C 14,6 C 87 % 1015,2 hPa 0,2 l/m 4,8 km/h (1 Bft) W 270 0 min 0,000 mm 0 W/m 12,1 C 14,2 C 11,3 km/h (2 Bft) 98 %
13.07.2016 22:20 13,9 C 13,9 C 14,2 C 88 % 1015,3 hPa 0,2 l/m 1,6 km/h (1 Bft) W-NW 292 0 min 0,000 mm 0 W/m 11,9 C 13,9 C 8,0 km/h (2 Bft) 97 %
13.07.2016 22:30 13,8 C 13,8 C 13,9 C 88 % 1015,4 hPa 0,0 l/m 0,0 km/h (0 Bft) W-NW 292 0 min 0,000 mm 0 W/m 11,8 C 13,8 C 1,6 km/h (1 Bft) 98 %
13.07.2016 22:40 13,6 C 13,6 C 13,8 C 89 % 1015,3 hPa 0,0 l/m 0,0 km/h (0 Bft) S 180 0 min 0,000 mm 0 W/m 11,8 C 13,6 C 4,8 km/h (1 Bft) 97 %
13.07.2016 22:50 13,4 C 13,4 C 13,6 C 89 % 1015,3 hPa 0,0 l/m 0,0 km/h (0 Bft) S-SW 202 0 min 0,000 mm 0 W/m 11,6 C 13,4 C 6,4 km/h (2 Bft) 97 %
13.07.2016 23:00 13,3 C 13,3 C 13,4 C 89 % 1015,3 hPa 0,0 l/m 0,0 km/h (0 Bft) S 180 0 min 0,000 mm 0 W/m 11,5 C 13,3 C 1,6 km/h (1 Bft) 98 %
13.07.2016 23:10 13,3 C 13,3 C 13,3 C 89 % 1015,4 hPa 0,0 l/m 0,0 km/h (0 Bft) S-SW 202 0 min 0,000 mm 0 W/m 11,5 C 13,3 C 4,8 km/h (1 Bft) 97 %
13.07.2016 23:20 13,3 C 13,3 C 13,3 C 89 % 1015,4 hPa 0,0 l/m 0,0 km/h (0 Bft) S-SW 202 0 min 0,000 mm 0 W/m 11,5 C 13,3 C 4,8 km/h (1 Bft) 98 %
13.07.2016 23:30 13,2 C 13,2 C 13,3 C 89 % 1015,4 hPa 0,0 l/m 1,6 km/h (1 Bft) W-SW 247 0 min 0,000 mm 0 W/m 11,4 C 13,2 C 9,7 km/h (2 Bft) 98 %
13.07.2016 23:40 13,2 C 13,2 C 13,2 C 89 % 1015,4 hPa 0,0 l/m 1,6 km/h (1 Bft) W-SW 247 0 min 0,000 mm 0 W/m 11,4 C 13,2 C 4,8 km/h (1 Bft) 98 %
13.07.2016 23:50 13,1 C 13,1 C 13,2 C 89 % 1015,3 hPa 0,0 l/m 3,2 km/h (1 Bft) W-NW 292 0 min 0,000 mm 0 W/m 11,3 C 13,1 C 14,5 km/h (3 Bft) 98 %
_ Min-Zeit 23:50 23:50 23:40 18:40 01:40 - 00:00 - - - - - 23:50 22:00 00:20 10:30
Minimum _ 13,1 C 13,1 C 13,2 C 66 % 1011,4 hPa - 0,0 km/h (0 Bft) - - - - - 11,3 C 12,8 C 0,0 km/h (0 Bft) 91 %
_ Max-Zeit 16:10 16:10 16:10 02:30 22:30 12:50 16:20 - - 07:40 15:00 14:30 14:50 15:50 16:10 00:00
Maximum _ 19,1 C 18,9 C 19,1 C 91 % 1015,4 hPa 0,8 l/m 16,1 km/h
W-NW (3 Bft)
- - 10 min 0,381 mm 1183 W/m 15,6 C 18,8 C 32,2 km/h
W (5 Bft)
100 %
Durchschnitt _ 15,6 C 15,5 C 15,8 C 84 % 1012,7 hPa #3,6 l/m 3,9 km/h (1 Bft) W-SW - #9:10 h #2,260 mm 314 W/m 12,9 C 15,3 C 11,3 km/h (2 Bft) 99 %
PRIVATE WETTERSTATION BILLIGHEIM-ALLFELD - www.neckar-odenwald-wetter.de - Holger Sonntag